Hourly Data Report for September 25, 2019

SAINT JOHN A
NEW BRUNSWICK
Current Station Operator: NAVCAN

45°18'58.000" N
65°53'24.000" W
108.80 m
8104901
71609
YSJ

Download Data

Hourly Data (September 2019)
Hourly Data Report for September 25, 2019
TIME
LST
Temp Definition
°C
Dew Point Definition
°C
Rel Hum Definition
%
Precip. Amount Definition
mm

Wind Dir Definition
10's deg

Wind Spd Definition
km/h
Visibility Definition
km
Stn Press Definition
kPa
Hmdx Definition


Wind Chill Definition


Weather Definition


00:00 14.1 14.1 100   14 7 1.6 99.17     Drizzle, Fog
01:00 13.7 13.7 100   36 3 1.0 99.17     Drizzle, Fog
02:00 13.6 13.6 100   36 2 3.2 99.14     Drizzle, Fog
03:00 13.1 13.1 100   34 8 3.2 99.13     Drizzle, Fog
04:00 11.9 11.9 100   32 19 2.4 99.16     Drizzle, Fog
05:00 11.1 11.1 100   33 17 3.2 99.21     Fog
06:00 10.3 10.3 100   33 17 3.2 99.26     Fog
07:00 9.9 9.9 100   32 23 3.2 99.29     Fog
08:00 10.1 10.1 100   32 23 4.8 99.35     Fog
09:00 10.2 10.0 99   33 23 9.7 99.38     Fog
10:00 10.8 9.9 94   33 23 24.1 99.41     LegendNANA
11:00 11.4 10.3 93   35 22 24.1 99.40     Cloudy
12:00 12.5 10.8 89   33 25 24.1 99.40     LegendNANA
13:00 13.0 10.0 82   34 22 24.1 99.38     LegendNANA
14:00 12.8 10.3 85   32 18 24.1 99.41     Cloudy
15:00 12.3 10.4 88   29 14 24.1 99.43     LegendNANA
16:00 12.1 10.1 87   28 14 24.1 99.42     LegendNANA
17:00 11.9 9.9 87   28 12 24.1 99.44     Cloudy
18:00 11.5 9.4 87   29 12 24.1 99.47     LegendNANA
19:00 11.2 9.5 90   29 9 24.1 99.50     LegendNANA
20:00 11.2 9.6 90   28 12 24.1 99.58     Cloudy
21:00 11.1 9.7 91   28 11 24.1 99.60     LegendNANA
22:00 11.1 9.7 91   30 10 19.3 99.61     LegendNANA
23:00 10.8 9.7 92   28 10 24.1 99.65     Cloudy

Notes on Data Quality.

Legend

  • E = Estimated
  • M = Missing
  • NA = Not Available*
  • [empty] = Indicates an unobserved value
Date modified: